SB KEPS @ AMSAT $ORB14023.O Orbital Elements 14023.OSCAR
HR AMSAT ORBITAL ELEMENTS FOR OSCAR SATELLITES FROM WA5QGD FORT WORTH,TX January 23, 2014 BID: ORB14023.O TO ALL RADIO AMATEURS BT
Satellite: AO-07 Catalog number: 07530 Epoch time: 14023.21186782 Element set: 878 Inclination: 101.4563 deg RA of node: 009.9104 deg Eccentricity: 0.0011721 Arg of perigee: 216.9898 deg Mean anomaly: 211.0530 deg Mean motion: 12.53601524 rev/day Decay rate: -1.8e-07 rev/day^2 Epoch rev: 79335 Checksum: 277
Satellite: FO-29 Catalog number: 24278 Epoch time: 14022.70438139 Element set: 290 Inclination: 098.5254 deg RA of node: 056.5719 deg Eccentricity: 0.0349597 Arg of perigee: 315.1803 deg Mean anomaly: 163.2206 deg Mean motion: 13.53013299 rev/day Decay rate: 2.0e-07 rev/day^2 Epoch rev: 86099 Checksum: 314
Satellite: SO-33 Catalog number: 25509 Epoch time: 14023.08799356 Element set: 675 Inclination: 031.4321 deg RA of node: 262.3831 deg Eccentricity: 0.0350636 Arg of perigee: 283.3384 deg Mean anomaly: 201.0615 deg Mean motion: 14.29286954 rev/day Decay rate: 2.66e-06 rev/day^2 Epoch rev: 79637 Checksum: 316
Satellite: RS-22 Catalog number: 27939 Epoch time: 14023.91849214 Element set: 155 Inclination: 097.7992 deg RA of node: 205.3285 deg Eccentricity: 0.0012700 Arg of perigee: 203.3519 deg Mean anomaly: 156.7114 deg Mean motion: 14.64824047 rev/day Decay rate: 7.04e-06 rev/day^2 Epoch rev: 55160 Checksum: 297
Satellite: VO-52 Catalog number: 28650 Epoch time: 14022.84607904 Element set: 640 Inclination: 097.5616 deg RA of node: 035.1566 deg Eccentricity: 0.0023928 Arg of perigee: 276.7003 deg Mean anomaly: 205.4459 deg Mean motion: 14.84655252 rev/day Decay rate: 1.658e-05 rev/day^2 Epoch rev: 47166 Checksum: 318
Satellite: HO-68 Catalog number: 36122 Epoch time: 14023.69770435 Element set: 260 Inclination: 100.2720 deg RA of node: 079.8530 deg Eccentricity: 0.0007483 Arg of perigee: 207.2355 deg Mean anomaly: 152.8364 deg Mean motion: 13.16311155 rev/day Decay rate: -4.3e-07 rev/day^2 Epoch rev: 19742 Checksum: 275
Satellite: AO-73 Catalog number: 39444 Epoch time: 14023.13366688 Element set: 44 Inclination: 097.7919 deg RA of node: 098.6992 deg Eccentricity: 0.0063620 Arg of perigee: 354.7851 deg Mean anomaly: 005.2689 deg Mean motion: 14.77407631 rev/day Decay rate: 1.449e-05 rev/day^2 Epoch rev: 804 Checksum: 337
/EX SB KEPS @ AMSAT $ORB14023.D Orbital Elements 14023.MICROS
HR AMSAT ORBITAL ELEMENTS FOR THE MICROSATS FROM WA5QGD FORT WORTH,TX January 23, 2014 BID: ORB14023.D TO ALL RADIO AMATEURS BT
Satellite: UO-11 Catalog number: 14781 Epoch time: 14023.76068262 Element set: 397 Inclination: 097.8731 deg RA of node: 086.5846 deg Eccentricity: 0.0007402 Arg of perigee: 292.5102 deg Mean anomaly: 067.5326 deg Mean motion: 14.81252340 rev/day Decay rate: 7.03e-06 rev/day^2 Epoch rev: 60658 Checksum: 299
Satellite: AO-16 Catalog number: 20439 Epoch time: 14023.77657141 Element set: 938 Inclination: 098.4953 deg RA of node: 323.9345 deg Eccentricity: 0.0010219 Arg of perigee: 221.0961 deg Mean anomaly: 198.3508 deg Mean motion: 14.32269928 rev/day Decay rate: 1.23e-06 rev/day^2 Epoch rev: 25381 Checksum: 309
Satellite: LO-19 Catalog number: 20442 Epoch time: 14023.07295360 Element set: 875 Inclination: 098.4654 deg RA of node: 324.3424 deg Eccentricity: 0.0011361 Arg of perigee: 212.8724 deg Mean anomaly: 147.1755 deg Mean motion: 14.32475806 rev/day Decay rate: 1.24e-06 rev/day^2 Epoch rev: 25390 Checksum: 286
Satellite: AO-27 Catalog number: 22825 Epoch time: 14022.83041429 Element set: 579 Inclination: 098.6462 deg RA of node: 329.8231 deg Eccentricity: 0.0008379 Arg of perigee: 012.2119 deg Mean anomaly: 040.8747 deg Mean motion: 14.29644643 rev/day Decay rate: 1.20e-06 rev/day^2 Epoch rev: 6001 Checksum: 288
Satellite: IO-26 Catalog number: 22826 Epoch time: 14022.84559937 Element set: 336 Inclination: 098.6404 deg RA of node: 330.0824 deg Eccentricity: 0.0008761 Arg of perigee: 004.4563 deg Mean anomaly: 355.6695 deg Mean motion: 14.29937361 rev/day Decay rate: 1.31e-06 rev/day^2 Epoch rev: 6014 Checksum: 304
Satellite: GO-32 Catalog number: 25397 Epoch time: 14023.51326744 Element set: 260 Inclination: 098.4489 deg RA of node: 347.0570 deg Eccentricity: 0.0001745 Arg of perigee: 056.6457 deg Mean anomaly: 083.2020 deg Mean motion: 14.23396134 rev/day Decay rate: 6.1e-07 rev/day^2 Epoch rev: 80728 Checksum: 293
Satellite: NO-44 Catalog number: 26931 Epoch time: 14023.20534143 Element set: 519 Inclination: 067.0518 deg RA of node: 052.2935 deg Eccentricity: 0.0005794 Arg of perigee: 267.1856 deg Mean anomaly: 092.8582 deg Mean motion: 14.30025660 rev/day Decay rate: 1.22e-06 rev/day^2 Epoch rev: 64287 Checksum: 292
Satellite: SO-50 Catalog number: 27607 Epoch time: 14023.66795932 Element set: 283 Inclination: 064.5585 deg RA of node: 312.7601 deg Eccentricity: 0.0033133 Arg of perigee: 067.5207 deg Mean anomaly: 292.9892 deg Mean motion: 14.73353954 rev/day Decay rate: 1.428e-05 rev/day^2 Epoch rev: 59619 Checksum: 329
Satellite: CO-55 Catalog number: 27844 Epoch time: 14023.63009007 Element set: 839 Inclination: 098.7002 deg RA of node: 034.4886 deg Eccentricity: 0.0009218 Arg of perigee: 338.8681 deg Mean anomaly: 134.1807 deg Mean motion: 14.21368438 rev/day Decay rate: 2.98e-06 rev/day^2 Epoch rev: 54804 Checksum: 320
Satellite: CO-57 Catalog number: 27848 Epoch time: 14023.60628019 Element set: 780 Inclination: 098.7092 deg RA of node: 034.0968 deg Eccentricity: 0.0009051 Arg of perigee: 345.1448 deg Mean anomaly: 139.8626 deg Mean motion: 14.21074038 rev/day Decay rate: 2.53e-06 rev/day^2 Epoch rev: 54796 Checksum: 323
Satellite: AO-51 Catalog number: 28375 Epoch time: 14023.12989737 Element set: 754 Inclination: 098.2335 deg RA of node: 335.1283 deg Eccentricity: 0.0084384 Arg of perigee: 071.3658 deg Mean anomaly: 355.3917 deg Mean motion: 14.41252761 rev/day Decay rate: 2.68e-06 rev/day^2 Epoch rev: 50301 Checksum: 316
Satellite: CP3 Catalog number: 31129 Epoch time: 14023.21383341 Element set: 656 Inclination: 097.9188 deg RA of node: 008.7173 deg Eccentricity: 0.0100785 Arg of perigee: 102.4710 deg Mean anomaly: 323.4198 deg Mean motion: 14.54150988 rev/day Decay rate: 1.013e-05 rev/day^2 Epoch rev: 35896 Checksum: 294
Satellite: CO-65 Catalog number: 32785 Epoch time: 14022.76465391 Element set: 850 Inclination: 097.7213 deg RA of node: 078.7425 deg Eccentricity: 0.0012770 Arg of perigee: 309.4854 deg Mean anomaly: 170.8434 deg Mean motion: 14.84591857 rev/day Decay rate: 1.360e-05 rev/day^2 Epoch rev: 31044 Checksum: 321
Satellite: PRISM Catalog number: 33493 Epoch time: 14023.83625892 Element set: 576 Inclination: 098.2358 deg RA of node: 193.6105 deg Eccentricity: 0.0017413 Arg of perigee: 192.3209 deg Mean anomaly: 167.7598 deg Mean motion: 14.87667930 rev/day Decay rate: 3.696e-05 rev/day^2 Epoch rev: 27070 Checksum: 337
Satellite: SOHLA-1 Catalog number: 33496 Epoch time: 14022.87339170 Element set: 256 Inclination: 098.1527 deg RA of node: 143.6351 deg Eccentricity: 0.0005921 Arg of perigee: 355.2164 deg Mean anomaly: 119.6379 deg Mean motion: 14.70548292 rev/day Decay rate: 4.43e-06 rev/day^2 Epoch rev: 26815 Checksum: 305
Satellite: TISAT-1 Catalog number: 36799 Epoch time: 14023.83369436 Element set: 841 Inclination: 098.0230 deg RA of node: 114.8563 deg Eccentricity: 0.0015513 Arg of perigee: 072.8547 deg Mean anomaly: 287.4374 deg Mean motion: 14.84465656 rev/day Decay rate: 2.220e-05 rev/day^2 Epoch rev: 19129 Checksum: 319
Satellite: STUDSAT Catalog number: 36801 Epoch time: 14021.86467506 Element set: 755 Inclination: 098.0360 deg RA of node: 118.4448 deg Eccentricity: 0.0010839 Arg of perigee: 055.5203 deg Mean anomaly: 084.1401 deg Mean motion: 14.92128878 rev/day Decay rate: 8.547e-05 rev/day^2 Epoch rev: 19127 Checksum: 302
Satellite: ALMASAT-1 Catalog number: 38078 Epoch time: 14023.22431493 Element set: 910 Inclination: 069.4768 deg RA of node: 045.7638 deg Eccentricity: 0.0646663 Arg of perigee: 223.1334 deg Mean anomaly: 131.7563 deg Mean motion: 14.37782709 rev/day Decay rate: 3.0755e-04 rev/day^2 Epoch rev: 10071 Checksum: 308
Satellite: XATCOBEO Catalog number: 38082 Epoch time: 14023.90035542 Element set: 878 Inclination: 069.4677 deg RA of node: 344.9631 deg Eccentricity: 0.0421560 Arg of perigee: 190.3038 deg Mean anomaly: 238.2676 deg Mean motion: 14.95398324 rev/day Decay rate: 1.04091e-03 rev/day^2 Epoch rev: 10242 Checksum: 305
Satellite: CUBEBUG-1 Catalog number: 39153 Epoch time: 14023.76183394 Element set: 788 Inclination: 098.0545 deg RA of node: 104.3474 deg Eccentricity: 0.0019206 Arg of perigee: 094.2420 deg Mean anomaly: 266.0980 deg Mean motion: 14.77053430 rev/day Decay rate: 1.232e-05 rev/day^2 Epoch rev: 4023 Checksum: 280
Satellite: ESTCUBE-1 Catalog number: 39161 Epoch time: 14023.82751366 Element set: 758 Inclination: 098.1091 deg RA of node: 105.7716 deg Eccentricity: 0.0011124 Arg of perigee: 128.7257 deg Mean anomaly: 231.4932 deg Mean motion: 14.69475997 rev/day Decay rate: 9.82e-06 rev/day^2 Epoch rev: 3839 Checksum: 322
/EX SB KEPS @ AMSAT $ORB14023.W Orbital Elements 14023.WEATHER
HR AMSAT ORBITAL ELEMENTS FOR WEATHER SATELLITES FROM WA5QGD FORT WORTH,TX January 23, 2014 BID: ORB14023.W TO ALL RADIO AMATEURS BT
Satellite: NOAA-10 Catalog number: 16969 Epoch time: 14023.18001703 Element set: 646 Inclination: 098.5264 deg RA of node: 050.9945 deg Eccentricity: 0.0011297 Arg of perigee: 323.8526 deg Mean anomaly: 086.6050 deg Mean motion: 14.27707173 rev/day Decay rate: 1.14e-06 rev/day^2 Epoch rev: 42333 Checksum: 288
Satellite: NOAA-11 Catalog number: 19531 Epoch time: 14023.20422252 Element set: 670 Inclination: 098.6932 deg RA of node: 105.8812 deg Eccentricity: 0.0010825 Arg of perigee: 358.2577 deg Mean anomaly: 001.8557 deg Mean motion: 14.15051965 rev/day Decay rate: 5.9e-07 rev/day^2 Epoch rev: 30723 Checksum: 281
